This is the latest recevied weather packets stored in our database for station/object KC1BRV. If no packets are shown the sender has not sent any weather packets the latest 10 day(s).
| Time | Temp. | Humidity | Pressure | Rain* | Wind** | Luminosity | Snow |
|---|---|---|---|---|---|---|---|
| 1788107816 | 27.22° C | 53% | 1020.8 hPa | 0 mm | - | 683 W/m² | - |
| 1788107517 | 26.67° C | 54% | 1020.8 hPa | 0 mm | - | 661 W/m² | - |
| 1788107212 | 26.67° C | 52% | 1020.9 hPa | 0 mm | - | 698 W/m² | - |
| 1788106907 | 26.67° C | 53% | 1020.9 hPa | 0 mm | - | 679 W/m² | - |
| 1788106602 | 26.67° C | 53% | 1020.9 hPa | 0 mm | - | 673 W/m² | - |
| 1788106297 | 26.67° C | 55% | 1021.1 hPa | 0 mm | - | 645 W/m² | - |
| 1788105994 | 26.67° C | 54% | 1021.3 hPa | 0 mm | - | 648 W/m² | - |
| 1788105693 | 26.67° C | 55% | 1021.1 hPa | 0 mm | - | 667 W/m² | - |
| 1788105390 | 26.67° C | 53% | 1021.2 hPa | 0 mm | - | 666 W/m² | - |
| 1788105086 | 26.67° C | 54% | 1021.3 hPa | 0 mm | - | 679 W/m² | - |
| 1788104780 | 26.67° C | 53% | 1021.4 hPa | 0 mm | - | 654 W/m² | - |
| 1788104477 | 26.11° C | 56% | 1021.5 hPa | 0 mm | - | 679 W/m² | - |
| 1788104173 | 26.11° C | 53% | 1021.5 hPa | 0 mm | - | 447 W/m² | - |
| 1788103873 | 26.67° C | 54% | 1021.5 hPa | 0 mm | - | 618 W/m² | - |
| 1788103572 | 26.11° C | 54% | 1021.6 hPa | 0 mm | - | 555 W/m² | - |
| 1788103271 | 26.11° C | 54% | 1021.5 hPa | 0 mm | - | 763 W/m² | - |
| 1788102966 | 26.67° C | 55% | 1021.6 hPa | 0 mm | - | 611 W/m² | - |
| 1788102661 | 26.11° C | 57% | 1021.7 hPa | 0 mm | - | 620 W/m² | - |
| 1788102361 | 26.11° C | 56% | 1021.6 hPa | 0 mm | - | 615 W/m² | - |
| 1788102055 | 26.11° C | 57% | 1021.7 hPa | 0 mm | - | 600 W/m² | - |
| 1788101755 | 26.11° C | 56% | 1021.7 hPa | 0 mm | - | 591 W/m² | - |
| 1788101450 | 25.56° C | 57% | 1021.8 hPa | 0 mm | - | 584 W/m² | - |
| 1788101146 | 25.56° C | 60% | 1022 hPa | 0 mm | - | 556 W/m² | - |
| 1788100842 | 25° C | 62% | 1022.1 hPa | 0 mm | - | 567 W/m² | - |
| 1788100537 | 24.44° C | 64% | 1022.2 hPa | 0 mm | - | 551 W/m² | - |
* Rain latest hour (hover to see other rain measurements)
** Current wind speed in m/s (hover to see current wind gust speed)